EW0868 Weather Reports


Display with metric or nautical units.
time (UTC)temp
F
wind
direction
speed
MPH
gust
MPH
rain 1hr
in
rain 24hr
in
rain mn
in
humidity
%
barometer
mb
20260510170045 57 244 5.0 11.0 0.00 0.00 0.00 83 1019.0
20260510164539 57 229 2.0 7.0 0.00 0.00 0.00 84 1018.9
20260510163038 57 360 5.0 8.0 0.00 0.00 0.00 83 1019.0
20260510161611 56 242 3.0 8.0 0.00 0.00 0.00 84 1018.9
20260510160058 56 267 1.0 7.0 0.00 0.00 0.00 85 1018.7
20260510154536 55 313 0.0 10.0 0.00 0.00 0.00 86 1018.4
20260510153050 55 228 1.0 5.0 0.00 0.00 0.00 88 1018.1
20260510151547 54 246 0.0 5.0 0.00 0.00 0.00 88 1018.3
20260510150035 54 236 0.0 6.0 0.00 0.00 0.00 88 1018.5
20260510144548 54 225 1.0 4.0 0.00 0.00 0.00 89 1018.4
20260510141549 53 236 0.0 0.0 0.00 0.00 0.00 89 1017.7
20260510140042 53 236 0.0 0.0 0.00 0.00 0.00 89 1017.6
20260510134536 53 233 0.0 2.0 0.00 0.00 0.00 89 1018.2
20260510133054 52 228 0.0 0.0 0.00 0.00 0.00 89 1017.7
20260510131547 52 257 0.0 1.0 0.00 0.00 0.00 89 1018.0
20260510130039 52 242 0.0 0.0 0.00 0.00 0.00 89 1017.7
20260510124552 52 242 0.0 0.0 0.00 0.00 0.00 89 1017.4
20260510123105 52 251 0.0 1.0 0.00 0.00 0.00 89 1017.8
20260510121541 51 246 0.0 0.0 0.00 0.00 0.00 89 1017.7
20260510120109 51 246 0.0 0.0 0.00 0.00 0.00 89 1017.8
20260510114544 51 246 0.0 0.0 0.00 0.00 0.00 89 1017.9
20260510113038 51 251 0.0 0.0 0.00 0.00 0.00 88 1018.0
20260510111552 52 251 0.0 0.0 0.00 0.00 0.00 88 1017.6
20260510110043 52 251 0.0 0.0 0.00 0.00 0.00 88 1017.6
20260510104557 52 251 0.0 0.0 0.00 0.00 0.00 88 1017.4
20260510103049 52 251 0.0 1.0 0.00 0.00 0.00 88 1017.5
20260510101543 52 254 0.0 3.0 0.00 0.00 0.00 87 1017.7
20260510100050 52 266 0.0 0.0 0.00 0.00 0.00 87 1017.6
20260510094548 52 266 0.0 0.0 0.00 0.00 0.00 87 1017.4
20260510093040 52 266 0.0 0.0 0.00 0.00 0.00 87 1017.4
20260510091539 52 266 0.0 0.0 0.00 0.00 0.00 87 1017.3
20260510090105 52 266 0.0 0.0 0.00 0.00 0.00 87 1017.4
20260510084542 53 254 0.0 0.0 0.00 0.00 0.00 87 1017.6
20260510083036 53 219 0.0 3.0 0.00 0.00 0.00 87 1017.5
20260510081534 53 234 0.0 0.0 0.00 0.00 0.00 87 1017.5
20260510080101 53 235 0.0 0.0 0.00 0.00 0.00 86 1017.3
20260510074552 53 232 0.0 0.0 0.00 0.00 0.00 86 1017.2
20260510073108 53 231 0.0 0.0 0.00 0.00 0.00 86 1017.2
20260510071539 53 229 0.0 2.0 0.00 0.00 0.00 85 1017.1
20260510070106 53 360 0.0 0.0 0.00 0.00 0.00 85 1017.0
20260510064542 54 213 1.0 4.0 0.00 0.01 0.00 85 1017.0
20260510063055 54 227 0.0 0.0 0.00 0.01 0.00 85 1017.2
20260510061552 54 355 0.0 0.0 0.00 0.01 0.00 85 1017.1
20260510060041 54 355 0.0 0.0 0.00 0.01 0.00 84 1016.9
20260510054554 55 355 0.0 0.0 0.00 0.01 0.00 84 1017.0
20260510053053 55 355 0.0 0.0 0.00 0.01 0.00 83 1017.1
20260510051545 56 355 0.0 0.0 0.00 0.01 0.00 83 1017.1
20260510050036 56 355 0.0 0.0 0.00 0.01 0.00 83 1017.0
20260510044610 57 355 0.0 0.0 0.00 0.03 0.00 82 1016.8
20260510043047 57 355 0.0 0.0 0.00 0.03 0.00 82 1016.7
20260510041600 58 338 0.0 0.0 0.00 0.03 0.00 81 1016.7
20260510040048 59 324 0.0 0.0 0.00 0.03 0.00 80 1016.4
20260510034546 60 313 0.0 0.0 0.00 0.03 0.00 80 1016.3
20260510033039 61 339 0.0 0.0 0.00 0.03 0.00 80 1016.1
20260510031536 62 278 0.0 1.0 0.00 0.03 0.00 80 1016.0
20260510030043 62 260 0.0 0.0 0.00 0.03 0.00 80 1015.9
20260510024542 62 257 0.0 0.0 0.00 0.03 0.00 82 1015.8
20260510023055 63 243 0.0 5.0 0.00 0.03 0.00 80 1015.9
20260510021548 63 360 1.0 6.0 0.00 0.03 0.00 80 1015.9
20260510020059 63 232 0.0 0.0 0.00 0.03 0.00 80 1016.1
20260510014611 64 222 0.0 10.0 0.00 0.03 0.00 80 1016.2
20260510013044 64 247 3.0 8.0 0.00 0.03 0.00 79 1016.3
20260510011541 64 239 6.0 9.0 0.00 0.03 0.00 80 1016.5
20260510010050 63 360 5.0 11.0 0.00 0.03 0.00 80 1016.7
20260510004548 64 360 5.0 9.0 0.00 0.03 0.00 79 1016.7
20260510003102 65 245 1.0 6.0 0.00 0.03 0.00 78 1016.7
20260510001559 65 249 3.0 7.0 0.00 0.03 0.00 76 1016.9
20260510000047 66 240 3.0 7.0 0.00 0.03 0.00 76 1017.0
20260509234538 67 223 1.0 8.0 0.00 0.03 0.00 76 1017.1
20260509233035 68 207 5.0 8.0 0.00 0.03 0.00 72 1017.4
20260509231609 69 188 4.0 10.0 0.00 0.03 0.00 72 1017.4
20260509230039 70 239 3.0 7.0 0.00 0.03 0.00 64 1017.6
20260509224553 70 230 0.0 3.0 0.00 0.03 0.00 60 1017.8
20260509223047 70 207 0.0 1.0 0.00 0.03 0.00 60 1017.9
20260509221544 70 239 0.0 2.0 0.00 0.03 0.00 61 1018.1
20260509220052 70 248 0.0 3.0 0.00 0.03 0.00 62 1018.4
20260509214551 71 96 0.0 0.0 0.00 0.03 0.00 59 1018.5
20260509213042 69 213 0.0 1.0 0.00 0.03 0.00 65 1018.7
20260509211539 69 15 0.0 3.0 0.00 0.03 0.00 62 1019.0
20260509210107 68 107 0.0 5.0 0.00 0.03 0.00 65 1019.1
20260509204539 68 223 0.0 4.0 0.00 0.03 0.00 68 1019.3
20260509203036 67 233 0.0 0.0 0.00 0.03 0.00 70 1019.5
20260509201548 66 120 0.0 0.0 0.00 0.03 0.00 71 1019.6
20260509200100 65 254 0.0 5.0 0.00 0.03 0.00 72 1019.7
20260509194612 65 90 1.0 7.0 0.00 0.03 0.00 72 1019.8
20260509193105 65 321 0.0 7.0 0.00 0.03 0.00 74 1020.0
20260509191542 64 63 1.0 5.0 0.00 0.03 0.00 74 1020.1
20260509190049 64 100 0.0 2.0 0.00 0.03 0.00 76 1020.3
20260509184547 63 252 0.0 5.0 0.00 0.03 0.00 77 1020.4
20260509183039 62 360 0.0 3.0 0.00 0.03 0.00 79 1020.4
20260509181612 61 360 0.0 0.0 0.00 0.03 0.00 79 1020.6
20260509180042 61 234 0.0 0.0 0.00 0.03 0.00 81 1020.7
20260509174536 60 52 0.0 2.0 0.00 0.03 0.00 82 1020.7
20260509173054 58 264 0.0 0.0 0.00 0.03 0.00 83 1020.8
20260509171547 58 84 0.0 0.0 0.00 0.03 0.00 86 1020.9